| time (UTC) | temp F | wind direction | speed MPH | gust MPH | rain 1hr in | rain 24hr in | rain mn in | humidity % | barometer mb |
| 20260903010051 | 50 | 63 | 0.0 | 0.0 | 0.00 | 0.00 | 0.00 | 100 | 1023.1 |
| 20260903003049 | 52 | 63 | 0.0 | 0.0 | 0.00 | 0.00 | 0.00 | 100 | 1023.3 |
| 20260903001547 | 53 | 63 | 0.0 | 0.0 | 0.00 | 0.00 | 0.00 | 100 | 1023.4 |
| 20260903000048 | 53 | 63 | 0.0 | 2.0 | 0.00 | 0.00 | 0.00 | 100 | 1023.1 |
| 20260902234605 | 55 | 63 | 0.0 | 1.0 | 0.00 | 0.00 | 0.00 | 100 | 1023.2 |
| 20260902233047 | 56 | 63 | 0.0 | 1.0 | 0.00 | 0.00 | 0.00 | 100 | 1023.3 |
| 20260902231545 | 57 | 63 | 0.0 | 2.0 | 0.00 | 0.00 | 0.00 | 100 | 1023.4 |
| 20260902230045 | 59 | 63 | 0.0 | 1.0 | 0.00 | 0.00 | 0.00 | 100 | 1023.2 |
| 20260902224605 | 60 | 63 | 0.0 | 1.0 | 0.00 | 0.00 | 0.00 | 100 | 1023.4 |
| 20260902223044 | 62 | 63 | 0.0 | 2.0 | 0.00 | 0.00 | 0.00 | 100 | 1023.3 |
| 20260902221544 | 63 | 63 | 0.0 | 2.0 | 0.00 | 0.00 | 0.00 | 100 | 1023.5 |
| 20260902220049 | 64 | 63 | 1.0 | 5.0 | 0.00 | 0.00 | 0.00 | 100 | 1023.4 |
| 20260902214542 | 64 | 66 | 0.0 | 5.0 | 0.00 | 0.00 | 0.00 | 100 | 1023.6 |
| 20260902213043 | 65 | 38 | 0.0 | 3.0 | 0.00 | 0.00 | 0.00 | 100 | 1023.7 |
| 20260902211541 | 66 | 15 | 0.0 | 3.0 | 0.00 | 0.00 | 0.00 | 100 | 1023.8 |
| 20260902210041 | 66 | 60 | 2.0 | 8.0 | 0.00 | 0.00 | 0.00 | 100 | 1023.8 |
| 20260902204541 | 67 | 73 | 1.0 | 8.0 | 0.00 | 0.00 | 0.00 | 100 | 1024.0 |
| 20260902203036 | 66 | 5 | 2.0 | 8.0 | 0.00 | 0.00 | 0.00 | 100 | 1023.4 |
| 20260902201532 | 67 | 342 | 3.0 | 9.0 | 0.00 | 0.00 | 0.00 | 100 | 1023.7 |
| 20260902200048 | 67 | 71 | 4.0 | 9.0 | 0.00 | 0.00 | 0.00 | 100 | 1023.8 |
| 20260902194528 | 67 | 81 | 1.0 | 8.0 | 0.00 | 0.00 | 0.00 | 100 | 1023.9 |
| 20260902193026 | 67 | 83 | 3.0 | 9.0 | 0.00 | 0.00 | 0.00 | 100 | 1023.8 |
| 20260902191530 | 67 | 90 | 2.0 | 9.0 | 0.00 | 0.00 | 0.00 | 100 | 1023.8 |
| 20260902190124 | 67 | 76 | 4.0 | 10.0 | 0.00 | 0.00 | 0.00 | 100 | 1023.7 |
| 20260902184523 | 67 | 74 | 5.0 | 9.0 | 0.00 | 0.00 | 0.00 | 100 | 1023.8 |
| 20260902183022 | 67 | 92 | 5.0 | 10.0 | 0.00 | 0.00 | 0.00 | 100 | 1023.7 |
| 20260902181522 | 67 | 56 | 2.0 | 9.0 | 0.00 | 0.00 | 0.00 | 100 | 1023.8 |
| 20260902180020 | 67 | 86 | 5.0 | 10.0 | 0.00 | 0.00 | 0.00 | 100 | 1023.9 |
| 20260902174518 | 68 | 75 | 4.0 | 11.0 | 0.00 | 0.00 | 0.00 | 100 | 1023.8 |
| 20260902173117 | 67 | 74 | 5.0 | 10.0 | 0.00 | 0.00 | 0.00 | 100 | 1023.9 |
| 20260902171517 | 67 | 78 | 3.0 | 10.0 | 0.00 | 0.00 | 0.00 | 100 | 1023.7 |
| 20260902170015 | 67 | 44 | 5.0 | 11.0 | 0.00 | 0.00 | 0.00 | 100 | 1023.7 |
| 20260902164516 | 67 | 74 | 3.0 | 12.0 | 0.00 | 0.00 | 0.00 | 100 | 1023.8 |
| 20260902163013 | 67 | 95 | 3.0 | 10.0 | 0.00 | 0.00 | 0.00 | 100 | 1023.8 |
| 20260902161513 | 67 | 87 | 3.0 | 10.0 | 0.00 | 0.00 | 0.00 | 100 | 1023.9 |
| 20260902160014 | 67 | 56 | 2.0 | 11.0 | 0.00 | 0.00 | 0.00 | 100 | 1024.0 |
| 20260902154508 | 66 | 86 | 5.0 | 11.0 | 0.00 | 0.00 | 0.00 | 100 | 1024.2 |
| 20260902153007 | 67 | 82 | 3.0 | 11.0 | 0.00 | 0.00 | 0.00 | 100 | 1024.2 |
| 20260902151505 | 68 | 98 | 1.0 | 9.0 | 0.00 | 0.00 | 0.00 | 100 | 1024.1 |
| 20260902150001 | 67 | 101 | 5.0 | 11.0 | 0.00 | 0.00 | 0.00 | 100 | 1024.4 |
| 20260902144558 | 66 | 64 | 4.0 | 11.0 | 0.00 | 0.00 | 0.00 | 100 | 1024.3 |
| 20260902143054 | 66 | 88 | 5.0 | 10.0 | 0.00 | 0.00 | 0.00 | 100 | 1024.2 |
| 20260902141551 | 66 | 53 | 6.0 | 10.0 | 0.00 | 0.00 | 0.00 | 100 | 1024.2 |
| 20260902140049 | 66 | 355 | 2.0 | 10.0 | 0.00 | 0.00 | 0.00 | 100 | 1024.3 |
| 20260902134541 | 65 | 84 | 5.0 | 10.0 | 0.00 | 0.00 | 0.00 | 100 | 1024.2 |
| 20260902133041 | 65 | 66 | 6.0 | 10.0 | 0.00 | 0.00 | 0.00 | 100 | 1024.3 |
| 20260902131535 | 63 | 84 | 3.0 | 9.0 | 0.00 | 0.00 | 0.00 | 100 | 1023.9 |
| 20260902130029 | 61 | 86 | 5.0 | 10.0 | 0.00 | 0.00 | 0.00 | 100 | 1024.1 |
| 20260902124522 | 59 | 137 | 2.0 | 4.0 | 0.00 | 0.00 | 0.00 | 100 | 1024.1 |
| 20260902123021 | 58 | 172 | 0.0 | 0.0 | 0.00 | 0.00 | 0.00 | 100 | 1024.1 |
| 20260902121521 | 57 | 172 | 0.0 | 1.0 | 0.00 | 0.00 | 0.00 | 100 | 1024.2 |
| 20260902120022 | 57 | 172 | 0.0 | 1.0 | 0.00 | 0.00 | 0.00 | 100 | 1024.3 |
| 20260902114525 | 56 | 172 | 0.0 | 1.0 | 0.00 | 0.00 | 0.00 | 100 | 1024.2 |
| 20260902113018 | 53 | 172 | 0.0 | 1.0 | 0.00 | 0.00 | 0.00 | 100 | 1024.1 |
| 20260902111516 | 52 | 172 | 0.0 | 1.0 | 0.00 | 0.00 | 0.00 | 100 | 1024.0 |
| 20260902110017 | 51 | 171 | 0.0 | 1.0 | 0.00 | 0.00 | 0.00 | 100 | 1024.0 |
| 20260902104519 | 50 | 171 | 0.0 | 1.0 | 0.00 | 0.00 | 0.00 | 100 | 1023.8 |
| 20260902103013 | 50 | 171 | 0.0 | 0.0 | 0.00 | 0.00 | 0.00 | 100 | 1023.7 |
| 20260902101512 | 50 | 172 | 0.0 | 1.0 | 0.00 | 0.00 | 0.00 | 100 | 1023.7 |
| 20260902100010 | 49 | 171 | 0.0 | 0.0 | 0.00 | 0.00 | 0.00 | 100 | 1023.4 |
| 20260902094517 | 49 | 172 | 0.0 | 1.0 | 0.00 | 0.00 | 0.00 | 100 | 1023.2 |
| 20260902093004 | 50 | 172 | 0.0 | 0.0 | 0.00 | 0.00 | 0.00 | 100 | 1023.2 |
| 20260902091502 | 51 | 172 | 0.0 | 0.0 | 0.00 | 0.00 | 0.00 | 100 | 1022.8 |
| 20260902090115 | 51 | 171 | 0.0 | 0.0 | 0.00 | 0.00 | 0.00 | 100 | 1022.9 |
| 20260902084559 | 52 | 172 | 0.0 | 0.0 | 0.00 | 0.00 | 0.00 | 100 | 1022.8 |
| 20260902083053 | 53 | 172 | 0.0 | 0.0 | 0.00 | 0.00 | 0.00 | 100 | 1022.7 |
| 20260902081551 | 54 | 171 | 0.0 | 0.0 | 0.00 | 0.00 | 0.00 | 100 | 1022.4 |
| 20260902080054 | 54 | 172 | 0.0 | 0.0 | 0.00 | 0.00 | 0.00 | 100 | 1022.2 |
| 20260902074545 | 54 | 171 | 0.0 | 1.0 | 0.00 | 0.00 | 0.00 | 100 | 1022.0 |
| 20260902073042 | 54 | 172 | 0.0 | 1.0 | 0.00 | 0.00 | 0.00 | 100 | 1021.9 |
| 20260902071540 | 55 | 171 | 0.0 | 3.0 | 0.00 | 0.00 | 0.00 | 100 | 1022.0 |
| 20260902070036 | 56 | 171 | 0.0 | 2.0 | 0.00 | 0.00 | 0.00 | 100 | 1021.7 |
| 20260902064534 | 57 | 171 | 0.0 | 1.0 | 0.00 | 0.00 | 0.00 | 100 | 1021.7 |
| 20260902063031 | 58 | 171 | 0.0 | 2.0 | 0.00 | 0.00 | 0.00 | 100 | 1021.7 |
| 20260902061531 | 58 | 171 | 1.0 | 3.0 | 0.00 | 0.00 | 0.00 | 100 | 1021.6 |
| 20260902060033 | 59 | 171 | 1.0 | 3.0 | 0.00 | 0.00 | 0.00 | 100 | 1021.7 |
| 20260902054524 | 59 | 170 | 0.0 | 3.0 | 0.00 | 0.00 | 0.00 | 100 | 1021.6 |
| 20260902053033 | 60 | 170 | 0.0 | 4.0 | 0.00 | 0.00 | 0.00 | 100 | 1021.6 |
| 20260902051521 | 61 | 168 | 2.0 | 7.0 | 0.00 | 0.00 | 0.00 | 100 | 1021.6 |
| 20260902050019 | 61 | 130 | 4.0 | 9.0 | 0.00 | 0.00 | 0.00 | 100 | 1021.7 |
| 20260902044518 | 61 | 144 | 4.0 | 10.0 | 0.00 | 0.00 | 0.00 | 100 | 1021.5 |
| 20260902043015 | 61 | 134 | 4.0 | 9.0 | 0.00 | 0.00 | 0.00 | 100 | 1021.3 |
| 20260902041514 | 61 | 151 | 3.0 | 9.0 | 0.00 | 0.00 | 0.00 | 100 | 1021.2 |
| 20260902040013 | 61 | 165 | 4.0 | 10.0 | 0.00 | 0.00 | 0.00 | 100 | 1021.1 |
| 20260902034512 | 61 | 151 | 3.0 | 8.0 | 0.00 | 0.00 | 0.00 | 100 | 1021.1 |
| 20260902033010 | 61 | 80 | 0.0 | 4.0 | 0.00 | 0.00 | 0.00 | 100 | 1021.0 |
| 20260902031509 | 61 | 78 | 3.0 | 6.0 | 0.00 | 0.00 | 0.00 | 100 | 1020.9 |
| 20260902030006 | 61 | 91 | 2.0 | 7.0 | 0.00 | 0.00 | 0.00 | 100 | 1020.8 |
| 20260902024508 | 61 | 93 | 3.0 | 7.0 | 0.00 | 0.00 | 0.00 | 100 | 1020.6 |
| 20260902023005 | 61 | 74 | 2.0 | 6.0 | 0.00 | 0.00 | 0.00 | 100 | 1020.6 |
| 20260902021510 | 61 | 97 | 1.0 | 8.0 | 0.00 | 0.00 | 0.00 | 100 | 1020.7 |
| 20260902020004 | 62 | 80 | 3.0 | 8.0 | 0.00 | 0.00 | 0.00 | 100 | 1020.6 |
| 20260902014504 | 62 | 67 | 1.0 | 10.0 | 0.00 | 0.00 | 0.00 | 100 | 1020.6 |
| 20260902013001 | 62 | 78 | 5.0 | 9.0 | 0.00 | 0.00 | 0.00 | 100 | 1020.6 |
| 20260902011600 | 63 | 88 | 7.0 | 11.0 | 0.00 | 0.00 | 0.00 | 100 | 1020.4 |